Starlink 31844

operational
NORAD ID: 60583 Int'l Des: 2024-150 Owner: SPXS Country: US Constellation: starlink
LEOCIRCULAR

About Starlink 31844

Description loading...

Live Position

Loading 3D Globe...

Upcoming Passes

Altitude History

Altitude vs Time

uPlot chart will show altitude changes over time

Two-Line Element Set

1 60583U 24150A 25260.06992045 -.00000385 00000-0 -88761-6 0 9998
2 60583 53.1620 33.1765 0001058 90.1770 269.9352 15.30190633 61468
Epoch: Sep 17, 2025 • Age: 22 hours

Current Status

Altitude 479.5 km
Velocity 7.63 km/s
Sub-Earth Point 45.90°N, 159.47°E
Launch Date Aug 20, 2024
Age 1 years
Type internet

Technical Details

Classification Payload
Mass 730.00 kg
Dry Mass 700.00 kg
Total Mass 730.00 kg
Length 0.30 m
Diameter 4.10 m
Span 29.00 m
Shape Box + pan
Manufacturer SPXS
Bus Type Starlink V2M
Phase Status In Orbit
Owner/State SPXS/US

Large Constellations

Loading constellations...